This is the latest recevied weather packets stored in our database for station/object KA1AL. If no packets are shown the sender has not sent any weather packets the latest 1 day(s).
| Time | Temp. | Humidity | Pressure | Rain* | Wind** | Luminosity | Snow |
|---|---|---|---|---|---|---|---|
| 1777970563 | 7.22° C | 91% | 1006.6 hPa | 0 mm | 0.89 m/s, 223° | 0 W/m² | - |
| 1777970259 | 7.22° C | 91% | 1006.6 hPa | 0 mm | 0.45 m/s, 203° | 0 W/m² | - |
| 1777969956 | 7.22° C | 91% | 1006.6 hPa | 0 mm | 0.45 m/s, 234° | 0 W/m² | - |
| 1777969652 | 7.22° C | 91% | 1006.7 hPa | 0 mm | 0.45 m/s, 188° | 0 W/m² | - |
| 1777969350 | 7.22° C | 91% | 1006.9 hPa | 0 mm | 0.89 m/s, 213° | 0 W/m² | - |
| 1777969045 | 7.22° C | 90% | 1006.6 hPa | 0 mm | 0.45 m/s, 193° | 0 W/m² | - |
| 1777968743 | 7.22° C | 91% | 1006.6 hPa | 0 mm | 0.45 m/s, 173° | 0 W/m² | - |
| 1777968440 | 7.78° C | 90% | 1006.7 hPa | 0 mm | 0.45 m/s, 203° | 0 W/m² | - |
| 1777968135 | 7.78° C | 90% | 1006.7 hPa | 0 mm | 0.89 m/s, 194° | 0 W/m² | - |
| 1777967831 | 7.78° C | 90% | 1006.5 hPa | 0 mm | 0.45 m/s, 263° | 0 W/m² | - |
| 1777967529 | 7.78° C | 89% | 1006.5 hPa | 0 mm | 0.45 m/s, 177° | 0 W/m² | - |
| 1777967226 | 7.78° C | 89% | 1006.3 hPa | 0 mm | 0.45 m/s, 164° | 0 W/m² | - |
| 1777966923 | 7.78° C | 89% | 1006.5 hPa | 0 mm | 0 m/s | 0 W/m² | - |
| 1777966620 | 7.78° C | 89% | 1006.6 hPa | 0 mm | 0.45 m/s, 183° | 0 W/m² | - |
| 1777966318 | 7.78° C | 89% | 1006.6 hPa | 0 mm | 0.45 m/s, 192° | 0 W/m² | - |
| 1777966014 | 7.78° C | 89% | 1006.6 hPa | 0 mm | 0.45 m/s, 177° | 0 W/m² | - |
| 1777965711 | 7.78° C | 89% | 1006.5 hPa | 0 mm | 0.89 m/s, 204° | 0 W/m² | - |
| 1777965406 | 7.78° C | 90% | 1006.6 hPa | 0 mm | 0.45 m/s, 181° | 0 W/m² | - |
| 1777965104 | 7.22° C | 91% | 1006.5 hPa | 0 mm | 0.89 m/s, 201° | 0 W/m² | - |
| 1777964801 | 7.22° C | 90% | 1006.3 hPa | 0 mm | 0 m/s | 0 W/m² | - |
| 1777964497 | 7.78° C | 89% | 1006.4 hPa | 0 mm | 0 m/s | 0 W/m² | - |
| 1777964193 | 7.22° C | 90% | 1006.5 hPa | 0 mm | 0 m/s | 0 W/m² | - |
| 1777963890 | 7.22° C | 90% | 1006.4 hPa | 0 mm | 0 m/s | 0 W/m² | - |
| 1777963587 | 7.22° C | 91% | 1006.5 hPa | 0 mm | 0 m/s | 0 W/m² | - |
| 1777963285 | 7.22° C | 89% | 1006.6 hPa | 0 mm | 0 m/s | 0 W/m² | - |
* Rain latest hour (hover to see other rain measurements)
** Current wind speed in m/s (hover to see current wind gust speed)